, TX

(GMT )
Port Isabel

Weather History for KPIL - September, 2012

Change the Weather History Date:

Friday, September 21, 2012

  Actual Average Record
Temperature  
Mean Temperature 76 °F -  
Max Temperature 87 °F - - ()
Min Temperature 66 °F - - ()
Cooling Degree Days 11    
Growing Degree Days 26 (Base 50)    
Moisture  
Dew Point 64 °F    
Average Humidity 65    
Maximum Humidity 87    
Minimum Humidity 48    
Precipitation  
Precipitation 0.00 in - - ()
Sea Level Pressure  
Sea Level Pressure 29.96 in    
Wind  
Wind Speed 6 mph (NE)    
Max Wind Speed 12 mph    
Max Gust Speed 17 mph    
Visibility 10 miles    
Events      
T = Trace of Precipitation, MM = Missing Value Source: NWS Daily Summary

Daily Weather History Graph

Daily Weather History Graph

Search for Another Location

Airport or City:

Trip Planner

Search our weather history database for the weather conditions in past years. The results will help you decide how hot, cold, wet, or windy it might be!

Date:

Astronomy

Sep. 21, 2012 Rise Set
Actual Time 7:17 AM CDT 7:26 PM CDT
Civil Twilight 6:54 AM CDT 7:49 PM CDT
Nautical Twilight 6:27 AM CDT 8:16 PM CDT
Astronomical Twilight 6:00 AM CDT 8:43 PM CDT
Moon 1:05 PM CDT (9/21) No Moon Set
Length of Visible Light 12h 54m
Length of Day
12h 08m
Waxing Crescent, 37% of the Moon is Illuminated
Sep 21
Waxing Crescent
Sep 22
First Quarter
Sep 29
Full
Oct 8
Last Quarter
Oct 15
New

Hourly Weather History & Observations

Time (CDT) Temp. Heat Index Dew Point Humidity Pressure Visibility Wind Dir Wind Speed Gust Speed Precip Events Conditions
12:53 AM 75.9 °F - 64.0 °F 67% 29.99 in 10.0 mi East 5.8 mph - N/A   Clear
1:53 AM 75.0 °F - 64.0 °F 69% 29.98 in 10.0 mi East 6.9 mph - N/A   Clear
2:53 AM 73.0 °F - 64.0 °F 73% 29.98 in 10.0 mi Calm Calm - N/A   Clear
3:53 AM 70.0 °F - 62.1 °F 76% 29.97 in 10.0 mi WNW 3.5 mph - N/A   Clear
4:53 AM 69.1 °F - 63.0 °F 81% 29.96 in 10.0 mi NW 5.8 mph - N/A   Clear
5:53 AM 68.0 °F - 64.0 °F 87% 29.97 in 10.0 mi NW 4.6 mph - N/A   Clear
6:53 AM 66.9 °F - 63.0 °F 87% 29.97 in 10.0 mi NW 5.8 mph - N/A   Clear
7:53 AM 68.0 °F - 63.0 °F 84% 29.98 in 10.0 mi NW 4.6 mph - N/A   Clear
8:53 AM 73.9 °F - 64.9 °F 73% 29.98 in 10.0 mi NW 6.9 mph - N/A   Clear
9:53 AM 81.0 °F 83.0 °F 66.0 °F 60% 29.99 in 10.0 mi NW 4.6 mph - N/A   Clear
10:53 AM 84.9 °F 86.1 °F 64.0 °F 49% 30.00 in 10.0 mi NE 6.9 mph - N/A   Partly Cloudy
11:53 AM 84.9 °F 86.6 °F 64.9 °F 51% 29.99 in 10.0 mi East 8.1 mph - N/A   Clear
12:53 PM 86.0 °F 87.3 °F 64.0 °F 48% 29.97 in 10.0 mi ENE 9.2 mph - N/A   Clear
1:53 PM 86.0 °F 87.3 °F 64.0 °F 48% 29.95 in 10.0 mi ENE 8.1 mph 17.3 mph N/A   Clear
2:53 PM 84.9 °F 86.1 °F 64.0 °F 49% 29.94 in 10.0 mi Variable 6.9 mph - N/A   Clear
3:53 PM 86.0 °F 87.6 °F 64.9 °F 49% 29.92 in 10.0 mi NE 11.5 mph 17.3 mph N/A   Clear
4:53 PM 84.9 °F 86.6 °F 64.9 °F 51% 29.92 in 10.0 mi NE 11.5 mph - N/A   Clear
6:53 PM 82.0 °F 83.0 °F 62.1 °F 51% 29.93 in 10.0 mi NE 8.1 mph - N/A   Clear
7:53 PM 78.1 °F - 64.0 °F 62% 29.93 in 10.0 mi NE 6.9 mph - N/A   Clear
8:53 PM 75.9 °F - 64.0 °F 67% 29.94 in 10.0 mi NE 6.9 mph - N/A   Clear
9:53 PM 75.9 °F - 64.0 °F 67% 29.96 in 10.0 mi ENE 6.9 mph - N/A   Clear
10:53 PM 79.0 °F - 66.9 °F 66% 29.96 in 10.0 mi East 10.4 mph - N/A   Clear
11:53 PM 79.0 °F - 69.1 °F 72% 29.97 in 10.0 mi East 6.9 mph - N/A   Clear